YAHSAT 1B

Last updated on Sun Apr 27 2025 00:02:40 GMT+0000 (Coordinated Universal Time)

1 38245U 12016A 25116.25738997 .00000129 00000+0 00000+0 0 9997 2 38245 0.0976 89.4722 0002844 309.4117 315.8875 1.00271194 47745
UTC large
Height (km)
Speed (km/s)
/
Latitude / Longitude
Inclination (degrees)
Orbital Period (minutes)
Azimuth
Elevation
Range (km)
Doppler Factor

Next 0 passes for location: London (51.5072 / 0.1276)

Sorry there are no passes over London.